ATLAS 5 CENTAUR DEB, 46606

Orbit data source: Space-Track

ATLAS 5 CENTAUR DEB, 46606 is space debris in HEO originally from a launch on Wed, 17 Oct 2018 UTC launched from the Air Force Eastern Test Range (AFETR). Debris objects in space refer to the collection of defunct objects orbiting the Earth. Examples of debris include non-operational satellites, rocket bodies, and fragments generated from explosions, collisions, or faulty payload assembly.

Loading next visibility...
Identifier
46606, 2018-079CE
Orbit
HEO
Country
Flag of USUS
Related business
Flag of USUnited Launch Alliance/Lockheed Martin (US)
Manufacturer
ULA Decatur
Mission
Spacecraft
Bus & Motor
Unknown
Mass
Unknown
Launch date (UTC)
2018-10-17 (8 years ago)
Launch vehicle
Unknown
Launch site
Air Force Eastern Test Range (AFETR)
Object type
Payload
Rocket body
Debris
Shape & HBR
Unknown shape, 1.1 m
Radar Cross Section
Medium (>0.1 m² and <1 m²)

Expand to show TLE details & history
Last TLE update: 2 days ago

TLE from 2 days ago
0 ATLAS 5 CENTAUR DEB
1 46606U 18079CE  26234.15592766 -.00000170  00000-0  00000-0 0  9994
2 46606  13.5825  34.2406 4655989 311.8179  16.7017  1.79381660 43889
Epoch: 2026-08-22T03:44Z
TLE epoch observation values (Epoch: 2026-08-22T03:44:32.149Z)
Latitude
-0.00008°
Longitude
7.68569°
Altitude
10,711.443 km
Speed
5.72 km/s
True Right ascension
02h 17m 09s
True Declination
0° 00' 00"
Sunlit
Object was in daylight at epoch
Visualization orbit readout
Latitude
Unknown
Longitude
Unknown
Altitude
Unknown
Speed
Unknown
Apparent Right ascension
Unknown
Apparent Declination
Unknown
Sunlit
N/A
Visualization observer readout
Local Sidereal Time
20:02:24
Azimuth
Unknown
Elevation
Unknown
Doppler factor
Unknown
Orbital elements
Apogee altitude
35,558.744 km
Perigee altitude
8,913.302 km
Semi-major axis
28,614.16 km
Eccentricity
0.4656
Inclination
13.5825°
RAAN
34.2406°
Arg. of periapsis
311.8179°
True anomaly
47.957°
Mean anomaly
16.7017°
Eccentric anomaly
30.06722°
Mean motion
0.44841 °/min
Orbital period
802.84 mins
BSTAR
0
Loading maneuver chart data...
Computing Atmospheric mass density...

Documentation

Showing up to 5 results
|